Time,TemperatureF,DewpointF,PressureIn,WindDirection,WindDirectionDegrees,WindSpeedMPH,WindSpeedGustMPH,Humidity,HourlyPrecipIn,Conditions,Clouds,dailyrainin,SoftwareType,DateUTC
2013-04-13 00:03:00,37.6,36.0,29.74,NNW,329,0.0,3.0,95,0.01,,,0.27,weatherlink.com 1.10,2013-04-13 04:03:00,
2013-04-13 00:17:00,37.3,36.0,29.74,NNW,329,0.0,1.0,95,0.01,,,0.27,weatherlink.com 1.10,2013-04-13 04:17:00,
2013-04-13 05:12:00,36.2,33.0,29.76,NNW,338,6.0,9.0,89,0.00,,,0.00,weatherlink.com 1.10,2013-04-13 09:12:00,
2013-04-13 05:19:00,36.3,33.0,29.76,NW,325,1.0,9.0,89,0.00,,,0.00,weatherlink.com 1.10,2013-04-13 09:19:00,
2013-04-13 05:34:00,36.2,33.0,29.76,NNW,336,2.0,7.0,88,0.00,,,0.00,weatherlink.com 1.10,2013-04-13 09:34:00,
2013-04-13 05:50:00,36.1,33.0,29.77,NW,313,4.0,6.0,88,0.00,,,0.00,weatherlink.com 1.10,2013-04-13 09:50:00,
2013-04-13 06:05:00,36.2,33.0,29.77,NNW,333,4.0,6.0,88,0.00,,,0.00,weatherlink.com 1.10,2013-04-13 10:05:00,
2013-04-13 06:20:00,36.1,33.0,29.77,NNW,333,3.0,4.0,87,0.01,,,0.01,weatherlink.com 1.10,2013-04-13 10:20:00,
2013-04-13 06:35:00,35.9,32.0,29.78,NNW,333,0.0,3.0,87,0.01,,,0.01,weatherlink.com 1.10,2013-04-13 10:35:00,
2013-04-13 06:50:00,35.8,33.0,29.78,NNW,333,1.0,2.0,89,0.01,,,0.01,weatherlink.com 1.10,2013-04-13 10:50:00,
2013-04-13 07:05:00,35.5,33.0,29.79,NNW,333,2.0,4.0,90,0.01,,,0.01,weatherlink.com 1.10,2013-04-13 11:05:00,
2013-04-13 07:20:00,35.9,32.0,29.79,NNW,336,1.0,5.0,86,0.00,,,0.01,weatherlink.com 1.10,2013-04-13 11:20:00,
2013-04-13 07:35:00,36.1,32.0,29.79,NNW,336,2.0,3.0,86,0.00,,,0.01,weatherlink.com 1.10,2013-04-13 11:35:00,
2013-04-13 07:50:00,36.3,32.0,29.79,NNW,336,0.0,4.0,85,0.00,,,0.01,weatherlink.com 1.10,2013-04-13 11:50:00,
2013-04-13 08:06:00,36.6,32.0,29.80,NNW,344,3.0,6.0,83,0.00,,,0.01,weatherlink.com 1.10,2013-04-13 12:06:00,
2013-04-13 09:36:00,38.5,33.0,29.81,West,263,2.0,12.0,82,0.00,,,0.01,weatherlink.com 1.10,2013-04-13 13:36:00,
2013-04-13 09:52:00,38.6,33.0,29.81,WSW,251,2.0,10.0,80,0.00,,,0.01,weatherlink.com 1.10,2013-04-13 13:52:00,
2013-04-13 10:07:00,39.0,34.0,29.81,NW,319,2.0,9.0,83,0.00,,,0.01,weatherlink.com 1.10,2013-04-13 14:07:00,
2013-04-13 10:37:00,40.7,34.0,29.81,South,171,6.0,9.0,78,0.00,,,0.01,weatherlink.com 1.10,2013-04-13 14:37:00,
2013-04-13 10:52:00,40.9,34.0,29.81,NNW,347,7.0,12.0,76,0.00,,,0.01,weatherlink.com 1.10,2013-04-13 14:52:00,
2013-04-13 11:07:00,41.2,34.0,29.81,North,5,4.0,12.0,76,0.00,,,0.01,weatherlink.com 1.10,2013-04-13 15:07:00,
2013-04-13 11:22:00,41.5,34.0,29.82,NW,325,10.0,14.0,76,0.00,,,0.01,weatherlink.com 1.10,2013-04-13 15:22:00,
2013-04-13 11:37:00,42.2,34.0,29.81,NNW,346,11.0,17.0,73,0.00,,,0.01,weatherlink.com 1.10,2013-04-13 15:37:00,
2013-04-13 11:53:00,42.5,35.0,29.80,NW,319,10.0,13.0,74,0.00,,,0.01,weatherlink.com 1.10,2013-04-13 15:53:00,
2013-04-13 12:08:00,43.6,35.0,29.80,NNW,341,4.0,13.0,71,0.00,,,0.01,weatherlink.com 1.10,2013-04-13 16:08:00,
2013-04-13 12:23:00,43.8,34.0,29.80,WNW,288,4.0,9.0,68,0.00,,,0.01,weatherlink.com 1.10,2013-04-13 16:23:00,
2013-04-13 12:38:00,43.6,34.0,29.80,North,5,2.0,9.0,69,0.00,,,0.01,weatherlink.com 1.10,2013-04-13 16:38:00,
2013-04-13 12:53:00,43.5,34.0,29.80,NNW,342,8.0,8.0,69,0.00,,,0.01,weatherlink.com 1.10,2013-04-13 16:53:00,
2013-04-13 13:08:00,44.1,34.0,29.80,WNW,301,4.0,15.0,69,0.00,,,0.01,weatherlink.com 1.10,2013-04-13 17:08:00,
2013-04-13 13:23:00,43.9,33.0,29.79,North,350,3.0,9.0,66,0.00,,,0.01,weatherlink.com 1.10,2013-04-13 17:23:00,
2013-04-13 13:53:00,44.6,34.0,29.79,West,267,2.0,8.0,66,0.00,,,0.01,weatherlink.com 1.10,2013-04-13 17:53:00,
2013-04-13 14:08:00,44.7,34.0,29.79,NW,325,2.0,9.0,67,0.00,,,0.01,weatherlink.com 1.10,2013-04-13 18:08:00,
2013-04-13 14:54:00,45.2,34.0,29.78,SE,125,5.0,9.0,66,0.00,,,0.01,weatherlink.com 1.10,2013-04-13 18:54:00,
2013-04-13 15:09:00,45.5,34.0,29.78,NW,304,4.0,9.0,64,0.00,,,0.01,weatherlink.com 1.10,2013-04-13 19:09:00,
2013-04-13 15:24:00,45.5,33.0,29.79,NW,314,3.0,6.0,63,0.00,,,0.01,weatherlink.com 1.10,2013-04-13 19:24:00,
2013-04-13 15:39:00,45.2,34.0,29.79,WNW,284,3.0,12.0,64,0.00,,,0.01,weatherlink.com 1.10,2013-04-13 19:39:00,
2013-04-13 15:54:00,45.2,33.0,29.79,WNW,294,1.0,8.0,63,0.00,,,0.01,weatherlink.com 1.10,2013-04-13 19:54:00,
2013-04-13 16:09:00,44.9,34.0,29.79,WNW,294,4.0,7.0,65,0.00,,,0.01,weatherlink.com 1.10,2013-04-13 20:09:00,
2013-04-13 16:24:00,44.9,33.0,29.80,NW,313,4.0,8.0,64,0.00,,,0.01,weatherlink.com 1.10,2013-04-13 20:24:00,
2013-04-13 16:39:00,44.5,34.0,29.80,WSW,255,2.0,6.0,67,0.00,,,0.01,weatherlink.com 1.10,2013-04-13 20:39:00,
2013-04-13 16:54:00,44.4,34.0,29.80,NNE,23,1.0,6.0,66,0.00,,,0.01,weatherlink.com 1.10,2013-04-13 20:54:00,
2013-04-13 17:09:00,45.1,33.0,29.78,North,5,4.0,12.0,64,0.00,,,0.01,weatherlink.com 1.10,2013-04-13 21:09:00,
2013-04-13 17:25:00,44.9,33.0,29.80,NNW,332,3.0,8.0,64,0.00,,,0.01,weatherlink.com 1.10,2013-04-13 21:25:00,
2013-04-13 17:40:00,44.4,33.0,29.81,ENE,78,4.0,11.0,65,0.00,,,0.01,weatherlink.com 1.10,2013-04-13 21:40:00,
2013-04-13 17:55:00,44.3,34.0,29.82,WNW,295,10.0,14.0,67,0.00,,,0.01,weatherlink.com 1.10,2013-04-13 21:55:00,
2013-04-13 18:10:00,43.7,33.0,29.83,NNW,337,7.0,14.0,67,0.00,,,0.01,weatherlink.com 1.10,2013-04-13 22:10:00,
2013-04-13 18:25:00,43.4,33.0,29.84,North,360,8.0,13.0,68,0.00,,,0.01,weatherlink.com 1.10,2013-04-13 22:25:00,
2013-04-13 18:40:00,43.3,33.0,29.84,North,350,7.0,14.0,68,0.00,,,0.01,weatherlink.com 1.10,2013-04-13 22:40:00,
2013-04-13 18:55:00,43.1,34.0,29.85,NNW,344,9.0,13.0,69,0.00,,,0.01,weatherlink.com 1.10,2013-04-13 22:55:00,
2013-04-13 19:10:00,42.9,34.0,29.85,NNW,331,4.0,11.0,70,0.00,,,0.01,weatherlink.com 1.10,2013-04-13 23:10:00,
2013-04-13 19:25:00,42.7,33.0,29.85,NW,319,0.0,7.0,68,0.00,,,0.01,weatherlink.com 1.10,2013-04-13 23:25:00,
2013-04-13 19:40:00,42.5,33.0,29.86,NW,311,5.0,9.0,69,0.00,,,0.01,weatherlink.com 1.10,2013-04-13 23:40:00,
2013-04-13 19:56:00,42.3,33.0,29.87,NNW,339,4.0,12.0,69,0.00,,,0.01,weatherlink.com 1.10,2013-04-13 23:56:00,
2013-04-13 20:11:00,42.1,33.0,29.87,ENE,61,4.0,10.0,70,0.00,,,0.01,weatherlink.com 1.10,2013-04-14 00:11:00,
2013-04-13 20:26:00,41.9,33.0,29.87,North,5,4.0,7.0,71,0.00,,,0.01,weatherlink.com 1.10,2013-04-14 00:26:00,
2013-04-13 20:56:00,41.0,36.0,29.87,NNW,333,0.0,0.0,81,0.00,,,0.01,weatherlink.com 1.10,2013-04-14 00:56:00,
2013-04-13 21:11:00,40.3,34.0,29.87,NNW,333,0.0,1.0,78,0.00,,,0.01,weatherlink.com 1.10,2013-04-14 01:11:00,
2013-04-13 21:26:00,39.4,34.0,29.87,NNW,333,0.0,2.0,82,0.00,,,0.01,weatherlink.com 1.10,2013-04-14 01:26:00,
2013-04-13 21:56:00,39.9,34.0,29.87,SE,124,1.0,5.0,78,0.00,,,0.01,weatherlink.com 1.10,2013-04-14 01:56:00,
2013-04-13 22:11:00,40.0,33.0,29.87,South,172,3.0,6.0,77,0.00,,,0.01,weatherlink.com 1.10,2013-04-14 02:11:00,
2013-04-13 22:26:00,40.9,32.0,29.87,North,355,3.0,6.0,71,0.00,,,0.01,weatherlink.com 1.10,2013-04-14 02:26:00,
2013-04-13 22:42:00,41.1,32.0,29.87,NNW,336,4.0,8.0,70,0.00,,,0.01,weatherlink.com 1.10,2013-04-14 02:42:00,
2013-04-13 22:57:00,41.2,32.0,29.87,NW,304,2.0,9.0,69,0.00,,,0.01,weatherlink.com 1.10,2013-04-14 02:57:00,
2013-04-13 23:27:00,41.3,31.0,29.87,NNE,13,5.0,9.0,68,0.00,,,0.01,weatherlink.com 1.10,2013-04-14 03:27:00,
2013-04-13 23:42:00,41.3,31.0,29.88,NNW,337,5.0,12.0,68,0.00,,,0.01,weatherlink.com 1.10,2013-04-14 03:42:00,
2013-04-13 23:57:00,41.2,32.0,29.88,NNW,331,2.0,11.0,69,0.00,,,0.01,weatherlink.com 1.10,2013-04-14 03:57:00,